[[{"header":{"parameterUnit":"m.s-1","parameterCategory":1,"la1":30.2991,"la2":30.254,"lo1":-89.0895,"lo2":-89.0444,"dy":0.0017,"dx":0.0017,"nx":28,"ny":28,"refTime":"2024-02-16T03:00:00:Z","depth":0,"parameterNumber":2,"parameterNumberName":"U-component_of_WINDS"},"data":[0,0,0,0,0,0,0,0,0,0,0,0,0,0,0,0,0,0,0,0,0,0,0,0,0,0,0,0,0,0,0,0,0,0,0,0,0,0,0,0,0,0,0,0,0,0,0,0,0,0,0,0,0,0,0,0,0,0,-0.1186,-0.1186,0,-0.1165,-0.1165,-0.1165,-0.114,-0.1139,-0.1139,-0.1138,-0.1118,-0.1118,-0.1118,0,0,0,0,0,0,0,0,0,0,0,0,0,-0.1206,-0.1206,-0.1186,-0.1186,-0.1186,-0.1165,-0.1165,-0.1165,-0.114,-0.1139,-0.1139,-0.1138,-0.1118,-0.1118,-0.1118,0,0,0,0,0,0,0,0,0,0,0,0,0,-0.1193,-0.1206,-0.1186,-0.1171,-0.1169,-0.1165,-0.1165,-0.1164,-0.114,-0.1139,-0.1139,-0.1138,-0.1118,-0.1118,-0.1118,-0.1127,0,0,-0.1117,-0.1117,0,0,0,0,0,0,0,0,-0.1193,-0.1192,-0.1173,-0.1172,-0.117,-0.1154,-0.1164,-0.1152,-0.114,-0.1151,-0.1138,-0.1138,-0.1131,-0.1129,-0.1127,-0.1126,-0.1126,-0.1117,-0.1117,-0.1116,-0.1116,0,0,0,0,0,0,0,-0.1194,-0.1193,-0.1178,-0.1173,-0.1171,-0.1165,-0.1163,-0.1162,-0.1144,-0.115,-0.1148,-0.1146,-0.113,-0.1127,-0.1126,-0.1125,-0.1117,-0.1116,-0.1116,-0.1116,-0.1132,-0.1133,0,0,0,0,0,0,-0.1198,-0.1194,-0.1179,-0.1177,-0.1181,-0.1165,-0.1163,-0.116,-0.1144,-0.1141,-0.1146,-0.1145,-0.1128,-0.1126,-0.1125,-0.1136,-0.1116,-0.1116,-0.1116,-0.1132,-0.1132,-0.1133,0,0,0,0,0,0,-0.1198,-0.1196,-0.1179,-0.1185,-0.1182,-0.1166,-0.1163,-0.116,-0.1157,-0.1142,-0.1138,-0.1147,-0.1127,-0.1126,-0.1127,-0.1135,-0.1116,-0.1116,-0.1131,-0.1132,-0.1133,-0.1157,0,0,0,0,0,0,-0.1199,-0.1197,-0.12,-0.1185,-0.1182,-0.1181,-0.1164,-0.116,-0.1157,-0.1154,-0.1141,-0.1138,-0.1127,-0.1128,-0.1127,-0.1134,-0.1116,-0.113,-0.1131,-0.1132,-0.1155,-0.1159,-0.1161,0,0,0,0,0,-0.12,-0.1208,-0.12,-0.1199,-0.1186,-0.1182,-0.118,-0.1166,-0.1157,-0.1161,-0.1151,-0.1139,-0.1134,-0.1128,-0.1127,-0.1134,-0.113,-0.1131,-0.1132,-0.1154,-0.1158,-0.1161,0,0,0,0,0,0,-0.1225,-0.1206,-0.1197,-0.1201,-0.1193,-0.1178,-0.1182,-0.1171,-0.1166,-0.1164,-0.1147,-0.1144,-0.1147,-0.1141,-0.1134,-0.1143,-0.113,-0.1131,-0.1147,-0.1151,-0.1153,-0.1155,-0.1115,0,0,0,0,0,-0.1231,-0.1229,-0.1212,-0.1218,-0.1214,-0.1199,-0.1196,-0.1186,-0.1177,-0.1174,-0.1164,-0.1157,-0.1153,-0.1151,-0.1148,-0.1154,-0.1151,-0.1159,-0.1162,-0.1164,-0.1165,-0.1169,-0.1172,-0.1137,-0.1137,-0.1137,0,0,-0.1243,-0.1233,-0.1233,-0.1222,-0.1215,-0.1214,-0.1196,-0.1195,-0.1194,-0.1174,-0.1175,-0.1167,-0.1158,-0.1162,-0.1163,-0.1156,-0.1174,-0.1166,-0.1168,-0.1168,-0.117,-0.1174,-0.1176,-0.1138,-0.1138,-0.1138,0,0,-0.1265,-0.1257,-0.126,-0.1253,-0.1242,-0.1232,-0.1233,-0.1219,-0.1213,-0.1213,-0.1198,-0.1197,-0.1191,-0.1185,-0.1181,-0.12,-0.119,-0.12,-0.1215,-0.1218,-0.1221,-0.1224,-0.1231,-0.1233,-0.1201,-0.1201,-0.1201,0,-0.1282,-0.1279,-0.1264,-0.1264,-0.126,-0.1241,-0.1244,-0.1238,-0.1227,-0.1225,-0.1217,-0.121,-0.1202,-0.1205,-0.1209,-0.1207,-0.1207,-0.1201,-0.1222,-0.1224,-0.1226,-0.1233,-0.1236,-0.1202,-0.1202,-0.1202,-0.1202,0,-0.1301,-0.1299,-0.1303,-0.1292,-0.1288,-0.129,-0.1275,-0.1273,-0.1263,-0.1254,-0.1254,-0.1244,-0.1238,-0.1238,-0.1228,-0.1239,-0.1235,-0.1225,-0.1212,-0.1231,-0.1237,-0.1239,-0.1204,-0.1204,-0.1203,-0.1203,0,0,-0.1339,-0.1318,-0.132,-0.1315,-0.1301,-0.13,-0.1301,-0.1294,-0.1293,-0.1286,-0.1287,-0.1282,-0.1273,-0.1268,-0.1258,-0.1261,-0.1277,-0.125,-0.125,-0.1256,-0.1289,-0.1296,-0.13,-0.1269,-0.127,-0.127,-0.1289,0,-0.1358,-0.1359,-0.1344,-0.1349,-0.1347,-0.1329,-0.133,-0.1322,-0.1313,-0.131,-0.1301,-0.1298,-0.1285,-0.1283,-0.1285,-0.1275,-0.1283,-0.1273,-0.127,-0.127,-0.1274,-0.1303,-0.1311,-0.133,-0.1292,-0.1292,-0.1292,0,-0.1382,-0.1375,-0.1379,-0.1365,-0.1364,-0.1365,-0.1358,-0.1355,-0.1346,-0.1339,-0.1334,-0.1322,-0.1323,-0.131,-0.131,-0.1304,-0.1302,-0.1297,-0.1297,-0.1297,-0.1283,-0.1303,-0.1335,-0.1338,-0.1296,-0.1295,-0.1295,0,-0.1409,-0.1401,-0.1403,-0.1399,-0.1383,-0.1384,-0.1377,-0.1367,-0.1364,-0.1358,-0.1356,-0.135,-0.1347,-0.1343,-0.1329,-0.1321,-0.1331,-0.1318,-0.1326,-0.1327,-0.133,-0.133,-0.1362,-0.1328,-0.1328,-0.1328,-0.1328,0,-0.1433,-0.1436,-0.1415,-0.1416,-0.1419,-0.1403,-0.1406,-0.1398,-0.1389,-0.1388,-0.1373,-0.1372,-0.1355,-0.1352,-0.1342,-0.1344,-0.1343,-0.1338,-0.1335,-0.1339,-0.134,-0.1338,-0.1337,-0.1328,-0.1328,-0.1328,-0.1328,0,-0.1464,-0.145,-0.145,-0.1435,-0.1431,-0.1434,-0.1421,-0.1421,-0.1411,-0.1411,-0.141,-0.1394,-0.1391,-0.1377,-0.137,-0.1363,-0.1369,-0.1363,-0.1372,-0.137,-0.138,-0.1379,-0.1413,-0.1416,-0.1379,-0.138,-0.138,0,-0.1481,-0.1483,-0.1467,-0.1465,-0.1459,-0.1456,-0.1453,-0.1437,-0.1434,-0.1423,-0.1425,-0.142,-0.1416,-0.1411,-0.14,-0.1395,-0.1389,-0.1401,-0.1388,-0.1393,-0.139,-0.139,-0.139,-0.1404,-0.1405,-0.1405,-0.1405,0,-0.1511,-0.1504,-0.1499,-0.1493,-0.1489,-0.1483,-0.1476,-0.1475,-0.1457,-0.1455,-0.1451,-0.1448,-0.1441,-0.1437,-0.1429,-0.1423,-0.1411,-0.1409,-0.1411,-0.1416,-0.1421,-0.1418,-0.138,-0.1409,-0.1408,-0.1408,-0.1408,-0.1408,-0.1535,-0.1536,-0.1526,-0.1521,-0.1514,-0.1508,-0.1508,-0.1497,-0.1494,-0.1487,-0.1477,-0.1475,-0.1465,-0.1454,-0.1449,-0.1447,-0.144,-0.1443,-0.1444,-0.1445,-0.1447,-0.1421,-0.1446,-0.1445,-0.1445,-0.1445,-0.1445,0,-0.1565,-0.1557,-0.1553,-0.1544,-0.1541,-0.1529,-0.1521,-0.1519,-0.1517,-0.1509,-0.1504,-0.15,-0.1496,-0.1484,-0.1478,-0.1479,-0.1474,-0.1478,-0.1478,-0.1477,-0.1453,-0.1452,-0.1483,-0.1483,-0.1483,-0.1483,-0.1483,-0.1483,-0.158,-0.1582,-0.1573,-0.1571,-0.1563,-0.156,-0.1556,-0.155,-0.1544,-0.154,-0.1536,-0.1528,-0.1518,-0.1512,-0.1507,-0.1504,-0.1503,-0.1509,-0.1504,-0.1482,-0.1479,-0.1475,-0.1474,-0.1509,-0.1509,-0.1529,-0.1529,-0.1529]},{"header":{"parameterUnit":"m.s-1","parameterCategory":1,"la1":30.2991,"la2":30.254,"lo1":-89.0895,"lo2":-89.0444,"dy":0.0017,"dx":0.0017,"nx":28,"ny":28,"refTime":"2024-02-16T03:00:00:Z","depth":0,"parameterNumber":3,"parameterNumberName":"V-component_of_WINDS"},"data":[0,0,0,0,0,0,0,0,0,0,0,0,0,0,0,0,0,0,0,0,0,0,0,0,0,0,0,0,0,0,0,0,0,0,0,0,0,0,0,0,0,0,0,0,0,0,0,0,0,0,0,0,0,0,0,0,0,0,0.0508,0.0508,0,0.0496,0.0496,0.0496,0.0517,0.0518,0.0518,0.0519,0.0503,0.0502,0.05,0,0,0,0,0,0,0,0,0,0,0,0,0,0.0547,0.0547,0.0509,0.0508,0.0508,0.0496,0.0496,0.0496,0.0517,0.0518,0.0518,0.0519,0.0503,0.0502,0.05,0,0,0,0,0,0,0,0,0,0,0,0,0,0.0532,0.0546,0.0509,0.0517,0.0518,0.0496,0.0496,0.0496,0.0517,0.0518,0.0519,0.052,0.0503,0.0502,0.05,0.0468,0,0,0.0495,0.0494,0,0,0,0,0,0,0,0,0.0533,0.0531,0.0516,0.0517,0.0517,0.0509,0.0504,0.0486,0.0516,0.0517,0.0519,0.052,0.0504,0.0502,0.0497,0.0467,0.0467,0.0495,0.0494,0.0493,0.0493,0,0,0,0,0,0,0,0.0534,0.0531,0.0503,0.0516,0.0517,0.0521,0.052,0.05,0.0504,0.0517,0.0518,0.0517,0.0504,0.0499,0.0497,0.0466,0.0495,0.0494,0.0493,0.0492,0.041,0.0409,0,0,0,0,0,0,0.0534,0.0532,0.0504,0.0503,0.0528,0.0519,0.0518,0.0511,0.0505,0.0505,0.0516,0.0518,0.0501,0.0499,0.0497,0.0459,0.0493,0.0492,0.0491,0.0411,0.0409,0.0408,0,0,0,0,0,0,0.0535,0.0532,0.0504,0.0518,0.0515,0.0517,0.0509,0.051,0.0505,0.0504,0.0504,0.051,0.0502,0.0499,0.0475,0.0458,0.0491,0.0489,0.0412,0.041,0.0409,0.0382,0,0,0,0,0,0,0.0536,0.0532,0.052,0.0518,0.0514,0.0484,0.0508,0.0509,0.0502,0.0504,0.0498,0.0498,0.0503,0.0478,0.0474,0.0457,0.0488,0.0414,0.0411,0.0409,0.0385,0.038,0.0376,0,0,0,0,0,0.0538,0.0513,0.052,0.0516,0.05,0.0483,0.0481,0.0487,0.0501,0.0489,0.0488,0.0499,0.0461,0.0475,0.0471,0.0453,0.0415,0.0412,0.0409,0.0387,0.0381,0.0376,0,0,0,0,0,0,0.0512,0.0512,0.052,0.0494,0.0489,0.0487,0.0472,0.0481,0.0471,0.0473,0.048,0.0479,0.0454,0.0451,0.0467,0.0422,0.044,0.0436,0.0424,0.0419,0.0414,0.0415,0.0487,0,0,0,0,0,0.0504,0.0491,0.0492,0.0468,0.0465,0.0469,0.0462,0.0468,0.0462,0.0459,0.0457,0.045,0.0437,0.0428,0.0415,0.0385,0.0383,0.037,0.0366,0.0362,0.0359,0.0342,0.0336,0.0399,0.0399,0.0399,0,0,0.0485,0.0484,0.0475,0.0463,0.046,0.0445,0.0467,0.0451,0.044,0.0456,0.0434,0.0432,0.0425,0.0398,0.0386,0.0395,0.0341,0.0359,0.0356,0.0354,0.0339,0.0333,0.0327,0.0398,0.0398,0.0398,0,0,0.0445,0.0443,0.0424,0.042,0.0415,0.0418,0.0413,0.041,0.041,0.0388,0.04,0.0387,0.0364,0.0358,0.0352,0.0311,0.0319,0.0306,0.0282,0.0266,0.0261,0.0257,0.0241,0.0236,0.0303,0.0303,0.0303,0,0.0423,0.0403,0.0412,0.0396,0.039,0.0405,0.0385,0.038,0.0371,0.0366,0.0377,0.0348,0.0344,0.0316,0.0306,0.0301,0.0295,0.0307,0.0261,0.0257,0.0253,0.0239,0.0233,0.0301,0.0301,0.0302,0.0302,0,0.0376,0.0362,0.0347,0.0339,0.0331,0.0312,0.0318,0.0309,0.0315,0.0317,0.0294,0.029,0.0277,0.0271,0.0276,0.0243,0.0249,0.0261,0.0279,0.0245,0.0232,0.0226,0.0299,0.0299,0.03,0.03,0,0,0.0318,0.0316,0.031,0.0307,0.0303,0.0292,0.0274,0.0263,0.0255,0.0248,0.0232,0.0213,0.0224,0.0217,0.0222,0.0208,0.0174,0.0221,0.0221,0.0212,0.0137,0.0128,0.0122,0.0181,0.018,0.0179,0.0138,0,0.0278,0.0249,0.0256,0.0227,0.0214,0.0228,0.0213,0.0208,0.0209,0.0197,0.0198,0.0184,0.0199,0.0195,0.0182,0.0181,0.0159,0.0184,0.0165,0.0165,0.0166,0.0115,0.0105,0.0066,0.0132,0.0132,0.0131,0,0.0227,0.022,0.0189,0.0187,0.0182,0.0168,0.0158,0.0147,0.0142,0.0144,0.0137,0.0144,0.0126,0.0145,0.0119,0.0136,0.0129,0.0127,0.0126,0.0124,0.0145,0.011,0.0054,0.0048,0.0123,0.0123,0.0124,0,0.0187,0.017,0.0149,0.0146,0.0143,0.0133,0.0131,0.0127,0.012,0.0111,0.0107,0.0096,0.0089,0.008,0.0084,0.0098,0.0057,0.0077,0.0057,0.0057,0.0047,0.0047,-0.0012,0.0043,0.0044,0.0044,0.0044,0,0.0141,0.0122,0.0131,0.0119,0.0097,0.0106,0.0084,0.0084,0.008,0.0067,0.0079,0.0066,0.0073,0.006,0.0063,0.0041,0.0038,0.0038,0.0039,0.0036,0.0036,0.0031,0.0033,0.0042,0.0042,0.0043,0.0043,0,0.0093,0.0099,0.0077,0.0078,0.0077,0.0061,0.006,0.0048,0.005,0.0033,0.003,0.0033,0.0018,0.0022,0.0006,0.0008,-0.002,-0.0015,-0.0018,-0.0017,-0.0037,-0.0036,-0.0103,-0.0111,-0.005,-0.005,-0.0051,0,0.0063,0.0049,0.0047,0.004,0.0038,0.0026,0.0019,0.0027,0.0019,0.0013,0.0001,-0.0012,-0.0022,-0.0046,-0.0046,-0.0058,-0.0054,-0.0077,-0.0056,-0.0058,-0.0055,-0.0055,-0.0057,-0.0081,-0.0082,-0.0083,-0.0083,0,0.0009,0.0013,0.0003,-0.0006,-0.0014,-0.0021,-0.0027,-0.0034,-0.0026,-0.0035,-0.0049,-0.0057,-0.0072,-0.0086,-0.0097,-0.0099,-0.0091,-0.0089,-0.0095,-0.0098,-0.0099,-0.0099,-0.003,-0.0088,-0.0088,-0.0087,-0.0087,-0.0087,-0.0032,-0.0044,-0.0046,-0.0058,-0.0061,-0.0066,-0.0078,-0.0076,-0.0087,-0.0098,-0.0093,-0.0109,-0.0114,-0.0128,-0.0132,-0.0145,-0.0137,-0.0145,-0.0147,-0.0149,-0.0152,-0.0096,-0.0147,-0.0147,-0.0147,-0.0147,-0.0147,0,-0.0086,-0.0087,-0.0097,-0.0105,-0.0114,-0.0102,-0.0108,-0.0117,-0.0131,-0.0135,-0.0145,-0.0161,-0.0174,-0.0174,-0.0186,-0.0197,-0.0193,-0.0201,-0.02,-0.0201,-0.0158,-0.0153,-0.0203,-0.0203,-0.0203,-0.0203,-0.0203,-0.0203,-0.0115,-0.0135,-0.0132,-0.0153,-0.0154,-0.0169,-0.0173,-0.0178,-0.0182,-0.02,-0.021,-0.021,-0.0213,-0.0225,-0.0237,-0.0237,-0.0242,-0.0251,-0.025,-0.021,-0.0204,-0.0199,-0.0194,-0.0252,-0.0252,-0.0292,-0.0292,-0.0292]}]]